Temperature
13 13 14 15 18 19 20 21 21 20 20 19 19 20 22 22 21 20 15 15 15 15 15 15 15 16 16 16 16 16 16 16 16 16 16 16 16 16 16 16 15 15 15 15 15 15 15 15 15
12 13 14 15 18 19 20 20 20 20 19 17 17 18 19 19 16 14 14 14 15 15 15 15 15 15 16 16 16 16 16 16 16 16 16 15 15 15 15 15 15 15 15 15 15 15 15 15 15
12 13 14 17 18 20 20 19 19 18 16 16 17 17 18 17 14 13 14 14 14 14 15 15 15 15 15 15 15 16 16 16 15 15 15 15 15 15 15 15 15 15 15 15 15 15 15 15 15
12 13 14 16 17 18 19 19 18 17 16 16 17 17 14 13 13 13 14 14 14 14 14 15 15 15 15 15 15 15 15 15 15 15 15 15 15 15 15 15 15 15 15 15 15 15 15 15 15
12 14 15 16 17 18 18 17 16 17 17 16 16 17 15 12 13 13 13 14 14 14 14 14 15 15 15 15 15 15 15 15 15 15 15 15 15 15 15 15 15 15 15 15 15 15 15 15 15
12 14 15 16 17 17 17 16 16 17 17 16 16 16 14 12 12 13 13 13 14 14 14 14 14 14 15 15 15 15 15 15 15 15 15 15 15 15 15 15 15 15 15 15 15 15 14 14 14
13 14 15 16 16 16 16 15 16 17 17 16 15 16 13 12 12 13 13 13 13 14 14 14 14 14 14 14 15 15 15 15 15 15 15 15 15 15 15 15 15 15 15 15 15 15 14 14 14
11 14 14 15 16 16 15 14 15 16 16 14 14 16 14 12 12 12 13 13 13 13 14 14 14 14 14 14 14 14 14 14 14 14 15 14 14 14 14 14 14 14 14 14 14 14 14 14 14
10 13 14 14 15 16 14 14 13 13 13 12 12 13 12 12 12 12 12 13 13 13 13 14 14 14 14 14 14 14 14 14 14 14 14 14 14 14 14 14 14 14 14 14 14 14 14 14 14
11 13 13 14 14 15 14 14 13 13 14 13 12 11 11 11 12 12 12 12 12 13 13 13 13 13 14 14 14 14 14 14 14 14 14 14 14 14 14 14 14 14 14 14 14 14 14 13 13
11 12 12 12 12 12 13 13 12 14 15 14 13 11 11 11 11 11 12 12 12 12 13 13 13 13 13 13 13 13 13 13 13 13 13 13 13 13 13 13 13 13 13 13 13 13 13 13 13
11 11 11 11 10 11 12 12 12 13 14 12 12 12 11 11 11 11 11 12 12 12 12 12 13 13 13 13 13 13 13 13 13 13 13 13 13 13 13 13 13 13 13 13 13 13 13 13 12
11 11 10 10 10 10 11 11 12 12 11 11 11 11 11 11 11 11 11 11 11 12 12 12 12 12 12 13 13 13 13 13 13 13 13 13 12 12 13 13 13 12 12 12 12 12 12 12 12
10 10 10 11 10 10 11 11 11 11 10 11 11 11 11 11 10 10 11 11 11 11 11 12 12 12 12 12 12 12 12 12 12 12 12 12 12 12 12 12 12 12 12 12 12 12 12 12 12
9 11 12 11 11 11 11 12 12 11 10 10 10 10 10 10 10 10 10 11 11 11 11 11 12 12 12 12 12 12 12 12 12 12 12 12 12 12 12 12 12 11 11 11 11 12 11 11 11
11 12 12 12 11 11 12 13 12 10 10 11 10 10 10 10 10 10 10 10 10 10 11 11 11 11 11 11 11 11 11 11 11 11 11 11 11 11 11 11 11 11 11 11 11 11 11 11 11
11 11 12 12 11 12 12 13 12 10 10 11 10 10 10 9 10 10 10 10 10 10 10 11 11 11 11 11 11 11 11 11 11 11 11 11 11 11 11 11 11 11 11 11 11 11 10 10 10
11 12 12 12 11 11 12 12 12 10 10 11 10 10 10 9 10 10 10 10 10 10 10 10 10 10 10 10 10 10 10 10 10 10 10 10 10 10 10 10 10 10 10 10 10 10 10 10 10
11 12 12 11 11 11 12 12 12 11 11 11 10 10 10 9 9 10 10 10 10 10 10 10 10 10 10 10 10 10 10 10 10 10 10 10 10 10 10 10 10 10 10 10 10 10 10 10 9
11 11 11 11 11 11 11 11 12 11 11 11 11 10 10 9 9 9 10 10 10 10 10 10 10 10 10 10 10 10 9 9 10 10 10 10 10 10 10 10 10 9 9 9 9 9 9 9 9
11 11 11 11 11 11 11 12 12 11 10 10 10 10 10 9 9 9 9 10 9 9 10 10 10 10 10 9 9 9 9 9 9 9 9 9 9 9 9 9 9 9 9 9 9 9 9 8 8
11 10 10 11 12 12 11 12 13 12 11 11 10 10 10 9 9 9 9 9 9 9 9 9 9 9 9 9 9 9 9 9 9 9 9 9 9 9 9 9 9 9 9 9 9 9 8 8 8
10 10 10 11 11 11 11 12 14 12 12 12 11 10 10 9 9 9 9 10 9 9 9 9 9 9 9 9 9 9 9 9 9 9 9 9 9 9 9 8 8 8 8 8 8 8 8 8 8
9 10 10 11 12 12 11 12 13 13 13 13 12 11 10 9 9 9 10 10 9 9 9 9 9 9 9 9 9 9 9 9 8 8 8 8 8 8 8 8 8 8 8 8 8 8 8 7 7
10 11 11 12 12 12 10 11 13 13 12 11 11 10 9 9 9 9 9 10 9 9 9 9 9 9 9 9 9 9 8 8 8 8 8 8 8 8 8 8 8 8 7 7 7 7 7 7 7
10 11 12 12 13 13 10 11 13 11 10 9 9 9 9 9 9 9 10 10 9 9 9 9 9 9 8 8 8 8 8 8 8 8 8 8 8 7 7 7 7 7 7 7 7 7 7 7 6
10 11 10 11 11 12 13 12 12 11 10 10 9 9 9 8 8 9 9 9 9 9 9 9 9 9 8 8 8 8 8 8 8 8 7 7 7 7 7 7 7 7 7 7 7 6 6 6 6
9 10 10 10 11 13 13 13 13 11 11 10 10 9 9 8 8 9 9 9 9 9 9 9 9 8 8 8 8 8 8 7 7 7 7 7 7 7 7 7 7 7 6 6 6 6 6 6 6
9 9 10 11 11 12 13 14 13 12 11 11 10 9 8 8 8 8 9 9 9 9 9 8 8 8 8 8 8 7 7 7 7 7 7 7 7 6 6 6 6 6 6 6 6 6 6 5 5
9 9 10 11 11 10 12 13 11 10 10 10 10 9 8 8 8 8 9 9 9 8 8 8 8 8 8 7 7 7 7 7 7 6 6 6 6 6 6 6 6 6 6 5 5 5 5 5 5
Wind_Speed
5 4 2 3 6 8 16 12 8 7 7 4 3 5 6 5 3 2 4 6 7 7 8 11 11 11 11 11 11 11 11 10 9 9 8 8 8 7 7 7 6 6 6 6 6 7 7 7 6
3 2 2 4 8 14 14 13 11 8 4 4 3 4 4 3 2 5 5 6 7 7 7 10 12 12 11 11 11 11 10 9 9 8 7 7 7 7 7 7 6 6 6 6 6 6 6 6 5
2 2 3 5 10 16 13 8 10 4 4 4 4 2 2 3 4 4 4 7 7 7 7 10 12 12 11 11 11 10 10 9 9 8 8 8 7 7 6 6 6 6 6 6 5 5 5 4 4
2 3 3 8 15 14 10 5 6 7 5 4 4 4 2 2 2 4 6 7 8 7 8 10 10 11 11 11 11 10 10 9 9 9 8 7 7 6 7 6 6 6 5 5 5 4 4 4 4
2 4 7 11 15 11 8 5 6 7 6 5 5 4 3 2 4 6 6 7 8 7 8 10 10 11 11 11 10 10 9 9 8 8 8 7 7 6 6 6 6 5 5 4 4 4 3 4 4
3 4 9 13 14 10 8 7 7 7 6 4 5 5 3 4 6 5 5 6 7 7 8 9 10 10 11 10 10 10 9 9 8 8 8 7 7 7 6 6 6 5 5 4 4 4 4 3 3
4 6 10 12 12 10 8 6 8 7 7 6 5 5 4 6 5 5 5 6 6 7 7 7 9 9 10 10 10 10 9 9 8 8 8 7 7 7 7 6 6 5 5 4 4 4 3 3 3
2 4 8 10 11 10 7 5 5 7 5 2 4 5 5 6 6 6 6 6 7 6 6 6 7 7 7 8 9 10 9 8 8 8 7 7 7 7 6 6 5 5 5 4 4 3 3 3 2
2 5 9 9 9 7 5 5 2 2 4 3 2 2 2 9 8 7 7 6 6 5 5 5 6 6 6 6 8 8 8 8 7 7 6 5 4 4 4 5 5 5 4 4 4 3 2 1 1
4 7 9 5 6 5 5 5 4 4 6 5 3 2 6 9 9 9 8 7 6 6 5 4 4 5 5 5 5 5 6 5 5 4 4 3 3 3 3 5 4 4 3 2 3 2 1 2 0
4 6 6 5 5 5 5 5 5 6 6 6 6 7 9 9 9 8 8 7 7 6 5 4 4 4 4 4 4 4 4 4 4 4 3 3 3 2 2 2 2 2 2 2 1 1 1 2 2
3 4 5 5 4 5 5 4 4 6 4 2 4 8 10 11 9 8 7 7 6 6 5 4 4 4 4 4 3 3 3 3 3 3 3 2 2 2 2 2 2 2 2 2 2 2 2 2 1
5 4 4 4 3 4 4 4 4 4 2 2 6 8 10 10 8 7 7 6 6 5 5 4 4 4 3 4 3 3 3 3 3 3 3 3 2 2 2 3 2 2 2 2 2 2 2 1 2
3 4 3 2 2 2 4 3 3 3 1 5 7 8 9 8 8 7 6 6 6 5 4 4 4 4 4 3 3 3 3 3 3 3 3 3 2 2 2 3 3 3 3 3 2 2 1 1 1
3 4 2 1 2 2 3 3 4 2 4 5 6 7 7 7 7 7 6 5 5 5 4 4 4 4 4 4 3 3 3 3 3 3 3 3 3 3 2 2 3 3 3 3 2 2 1 1 1
3 3 2 1 1 2 5 5 3 3 5 6 6 6 7 6 6 5 5 4 4 5 5 4 3 4 4 4 3 3 3 3 3 3 3 3 3 3 2 2 3 3 3 3 2 2 2 1 1
1 3 3 1 0 2 5 4 2 3 5 6 6 6 6 6 5 4 4 4 4 5 5 4 4 4 5 4 3 3 3 3 3 2 3 3 3 3 2 2 3 3 3 2 2 2 2 2 2
3 3 3 2 0 3 4 3 1 3 5 6 6 6 6 6 5 5 4 4 4 4 5 4 4 4 4 4 3 2 2 2 2 2 2 2 2 2 2 2 2 3 2 2 2 2 2 1 2
3 3 2 1 1 3 4 3 2 3 6 6 6 7 7 6 5 5 5 5 4 4 4 4 4 4 3 3 2 2 1 1 1 2 2 2 2 2 2 1 2 2 2 2 2 1 1 1 2
3 3 2 0 1 1 3 3 2 4 6 6 7 7 7 6 6 6 5 5 5 5 5 4 4 4 3 2 2 1 1 1 1 1 1 2 2 2 1 2 1 2 1 2 2 1 1 1 1
1 3 3 1 0 1 2 2 3 3 3 4 5 6 6 7 7 7 6 6 5 5 5 4 4 4 3 3 3 3 2 1 1 1 0 0 1 1 1 1 1 1 1 1 2 1 1 1 1
1 2 2 2 2 0 1 2 4 4 4 5 5 5 6 6 6 6 7 7 7 6 5 5 5 4 4 3 3 3 2 2 1 1 1 1 1 0 0 0 1 1 1 1 2 2 2 2 2
1 1 1 1 1 1 0 2 3 3 5 7 7 6 5 6 6 7 7 7 6 6 5 5 5 5 4 4 3 3 3 2 1 1 1 2 1 1 1 1 1 1 1 1 1 2 2 2 2
1 1 1 1 1 2 1 2 3 4 6 6 6 7 6 5 5 6 6 5 5 5 5 5 6 5 5 5 5 4 4 3 2 3 2 2 2 2 2 2 2 2 2 2 2 2 2 2 3
1 0 1 1 1 2 1 3 4 2 3 4 5 6 6 6 6 6 6 6 6 6 6 6 6 6 5 5 5 5 5 4 4 4 3 3 3 2 3 2 2 2 3 3 3 3 3 3 3
1 1 1 1 2 1 1 4 2 1 1 2 3 4 5 5 5 5 6 6 6 6 6 6 6 6 5 6 5 5 5 4 4 5 4 4 3 3 3 3 4 4 4 4 4 4 4 3 3
1 0 2 0 1 2 3 3 4 1 1 2 3 4 4 5 5 5 5 5 5 5 6 6 6 6 5 5 5 5 5 5 4 4 4 4 4 3 3 4 4 4 4 5 4 4 4 4 4
2 1 1 1 2 2 3 4 3 3 4 4 4 4 4 4 4 5 4 5 5 4 4 4 5 5 4 4 4 4 4 4 4 4 4 4 4 4 4 4 5 4 4 5 5 5 4 5 5
1 1 1 1 2 2 3 2 1 3 4 5 5 4 4 4 5 5 4 4 4 4 4 4 4 3 4 4 4 4 4 4 4 4 4 4 4 4 5 5 5 5 5 5 5 5 5 6 6
2 2 3 3 2 2 3 3 2 2 3 5 5 4 4 4 4 4 4 4 4 4 3 3 3 3 3 3 3 3 3 3 4 4 4 4 4 4 5 5 5 5 5 5 6 6 6 6 7
Wind_Direction
324 315 283 225 211 222 232 224 218 199 196 199 197 206 208 199 204 123 94 132 133 140 144 149 139 136 131 125 119 115 114 113 114 116 115 113 109 107 103 99 92 90 85 83 80 77 73 71 69
310 296 229 217 222 224 227 219 212 203 182 164 177 193 189 186 71 98 123 131 136 134 139 143 135 132 128 123 119 117 115 113 112 111 111 109 105 103 100 94 86 83 81 78 75 74 72 70 65
274 275 221 211 226 229 224 204 209 192 175 183 170 185 186 151 122 118 120 137 134 127 130 126 132 130 127 123 119 116 114 112 108 106 103 101 101 99 97 93 85 78 76 73 72 69 68 64 57
228 198 214 226 227 231 238 201 194 180 180 193 185 163 134 78 106 117 127 137 133 124 122 121 126 130 127 124 120 116 113 109 105 102 100 96 94 93 92 89 83 78 76 74 72 69 66 58 49
227 210 211 224 232 231 238 237 204 200 193 190 196 182 152 106 109 122 131 137 133 125 119 123 121 128 126 121 117 114 112 109 105 101 100 100 93 90 86 85 82 78 76 71 68 66 59 50 43
199 213 219 224 225 227 227 222 217 221 210 201 193 175 152 134 131 126 128 132 129 125 121 123 117 121 121 119 116 114 112 109 106 102 99 98 96 89 85 81 78 74 70 64 61 56 52 48 44
214 212 226 229 229 225 218 213 222 222 219 210 193 176 157 154 135 133 128 121 120 121 122 126 126 126 121 116 117 115 112 110 106 101 97 94 92 89 85 79 73 69 64 58 54 48 42 39 43
237 221 225 226 228 227 209 211 235 230 218 182 202 194 178 161 143 134 123 114 106 106 111 123 127 129 135 128 118 116 111 107 102 98 97 99 99 95 89 82 70 67 59 54 51 43 35 32 41
222 219 226 224 229 225 198 207 208 254 190 202 228 268 140 140 147 143 133 120 108 101 100 112 124 127 127 131 127 125 116 107 109 102 98 109 107 100 98 75 69 65 56 53 48 38 30 8 112
207 222 228 238 252 249 217 221 199 193 208 209 198 151 136 151 159 158 155 146 134 120 106 103 113 123 126 121 130 131 127 120 113 106 107 100 92 84 81 95 77 66 54 57 42 25 14 280 280
209 230 239 248 272 268 232 228 200 202 216 213 197 170 158 163 165 164 159 152 141 128 114 104 109 115 118 118 121 119 123 122 113 97 97 93 83 76 69 76 78 62 43 25 27 341 357 339 345
215 237 246 252 274 260 238 218 212 221 243 275 194 165 165 168 169 167 157 149 140 130 119 108 105 107 106 106 111 116 112 108 97 92 79 77 69 55 50 46 33 25 15 0 351 343 355 345 342
233 242 252 251 260 255 242 224 222 245 276 185 149 158 167 166 166 162 152 149 143 135 124 114 110 109 107 103 101 106 101 101 101 93 82 69 64 56 48 43 34 24 13 1 351 342 352 352 358
246 242 244 244 230 235 220 234 216 237 176 150 153 161 166 160 159 154 154 152 147 137 129 122 114 113 118 112 105 93 87 90 95 84 75 68 63 55 51 46 32 22 8 357 342 350 341 356 358
242 231 229 267 234 223 213 230 223 211 168 158 158 158 158 152 153 158 157 156 152 143 136 130 125 122 124 115 102 94 88 78 81 82 83 76 65 57 51 42 31 19 4 359 354 4 347 12 7
225 215 214 202 230 222 211 220 182 166 173 165 161 156 153 148 152 152 149 150 149 144 138 130 127 130 125 115 105 96 89 79 70 76 78 70 64 56 51 43 31 14 5 3 5 2 353 3 350
188 210 218 207 238 200 210 227 160 161 174 167 165 158 152 147 146 149 150 152 152 147 139 137 136 135 125 114 111 98 86 77 68 66 70 70 63 54 51 42 28 14 13 11 6 6 355 352 356
212 212 207 218 213 191 201 223 179 174 180 176 170 166 164 163 167 163 160 160 158 151 144 142 141 137 129 124 122 120 99 85 71 63 65 70 68 61 51 44 30 15 17 15 10 9 10 350 345
227 215 207 238 280 208 207 233 223 185 185 183 182 178 175 173 169 164 161 164 164 158 155 155 153 149 148 146 147 144 124 103 81 58 50 56 61 61 53 33 33 20 17 5 358 350 352 6 350
213 213 210 109 37 216 209 248 226 192 196 197 194 190 182 178 177 176 173 171 175 173 168 167 171 162 166 166 146 131 125 137 88 78 48 32 46 52 46 35 31 19 359 357 355 350 298 332 349
236 223 218 192 109 89 199 216 186 180 193 203 209 203 195 192 191 188 186 184 185 186 181 181 182 174 176 165 142 137 147 163 169 180 199 345 22 50 41 21 16 18 359 349 336 314 284 276 269
239 300 238 205 185 159 264 224 209 195 206 211 208 201 202 202 199 194 191 189 192 193 187 187 185 183 183 178 179 183 194 202 207 211 210 211 223 214 22 298 321 339 323 319 329 308 280 270 262
307 323 206 199 190 176 218 228 222 186 209 212 210 205 205 203 199 195 193 190 191 190 188 190 189 188 188 189 195 201 210 217 215 237 227 219 210 215 226 249 262 269 277 288 297 292 272 259 257
190 146 120 142 223 230 260 241 233 204 216 214 210 209 206 197 194 191 186 185 183 184 188 193 194 197 197 196 204 212 217 216 228 241 242 234 230 222 220 231 244 251 256 260 263 263 258 258 250
354 180 143 183 223 250 60 254 254 242 232 236 225 213 204 195 189 186 183 182 182 185 189 194 199 203 203 204 209 215 224 227 237 246 246 241 239 237 227 227 241 248 250 253 251 249 246 245 245
340 305 303 247 234 269 228 244 263 5 294 255 229 212 196 191 189 191 192 188 187 189 191 194 201 205 205 208 212 216 223 231 241 247 252 249 249 257 256 240 241 244 248 247 243 247 242 242 243
178 139 347 321 256 251 239 263 276 196 218 189 174 179 186 188 187 188 189 190 189 189 192 197 201 205 207 211 217 219 222 231 241 249 252 254 250 255 256 254 249 243 244 245 243 244 241 239 241
351 137 193 227 247 255 248 242 235 206 203 191 187 184 181 184 186 186 186 188 188 189 190 195 203 209 213 214 219 226 225 233 243 246 247 252 255 253 253 252 253 252 249 246 242 246 243 240 241
156 177 217 221 276 267 269 248 175 210 213 207 206 200 191 186 186 187 187 187 187 185 186 190 197 208 215 216 220 228 231 231 241 246 252 254 256 251 246 245 248 249 249 248 244 243 244 243 244
259 244 221 259 255 250 274 277 116 239 257 229 216 206 197 189 187 185 184 181 182 183 184 189 197 208 217 217 219 230 237 233 239 250 255 254 254 253 250 246 245 247 248 247 246 247 245 245 247
Height
1520 1521 1522 1525 1524 1517 1509 1506 1507 1510 1512 1515 1516 1515 1513 1514 1517 1522 1523 1522 1525 1527 1530 1531 1534 1535 1537 1538 1539 1539 1540 1541 1541 1541 1541 1541 1541 1541 1541 1541 1541 1541 1541 1541 1540 1540 1540 1539 1539
1520 1521 1524 1524 1516 1510 1505 1504 1509 1510 1513 1516 1517 1517 1516 1517 1519 1520 1520 1522 1525 1527 1529 1531 1533 1535 1536 1538 1539 1539 1540 1541 1541 1541 1541 1542 1542 1542 1541 1541 1541 1541 1541 1540 1540 1540 1539 1539 1539
1519 1521 1523 1519 1511 1503 1501 1506 1509 1514 1515 1516 1516 1517 1517 1518 1520 1520 1520 1522 1525 1527 1529 1531 1533 1535 1536 1538 1538 1539 1540 1540 1541 1541 1542 1542 1542 1541 1541 1541 1541 1541 1540 1540 1540 1539 1539 1539 1538
1520 1522 1522 1516 1507 1504 1503 1507 1510 1513 1515 1516 1516 1516 1518 1519 1519 1519 1520 1523 1525 1527 1529 1531 1533 1535 1536 1537 1538 1539 1540 1540 1541 1541 1541 1541 1541 1541 1541 1541 1541 1540 1540 1540 1539 1539 1539 1538 1538
1519 1519 1516 1511 1506 1506 1509 1511 1512 1512 1512 1514 1515 1514 1517 1518 1517 1519 1520 1523 1525 1527 1529 1531 1532 1534 1536 1537 1538 1539 1540 1540 1541 1541 1541 1541 1541 1541 1541 1540 1540 1540 1540 1539 1539 1538 1538 1538 1537
1519 1516 1511 1506 1505 1508 1511 1512 1512 1511 1512 1514 1514 1514 1516 1517 1517 1519 1521 1523 1525 1526 1528 1530 1532 1534 1536 1537 1538 1539 1539 1540 1540 1540 1541 1541 1541 1540 1540 1540 1540 1539 1539 1538 1538 1538 1537 1537 1536
1517 1513 1507 1504 1504 1506 1509 1512 1511 1510 1511 1513 1514 1514 1515 1517 1517 1519 1521 1522 1524 1526 1528 1530 1532 1533 1535 1536 1537 1538 1539 1539 1539 1540 1540 1540 1540 1540 1540 1539 1539 1538 1538 1538 1537 1537 1536 1536 1535
1516 1514 1508 1505 1505 1505 1509 1511 1510 1510 1510 1513 1514 1513 1514 1515 1516 1518 1520 1522 1524 1526 1527 1529 1531 1532 1534 1535 1537 1537 1538 1539 1539 1539 1539 1539 1539 1539 1539 1538 1538 1538 1537 1537 1536 1536 1535 1535 1534
1516 1515 1508 1506 1505 1505 1509 1509 1510 1510 1511 1512 1512 1513 1513 1513 1515 1517 1520 1522 1523 1525 1527 1528 1530 1532 1533 1534 1536 1537 1537 1538 1538 1538 1538 1538 1538 1538 1538 1538 1537 1537 1536 1536 1535 1535 1534 1534 1533
1515 1510 1507 1508 1508 1507 1508 1508 1509 1510 1509 1510 1511 1511 1512 1513 1515 1517 1519 1521 1522 1524 1526 1527 1529 1530 1532 1533 1534 1536 1536 1537 1537 1537 1537 1538 1537 1537 1537 1536 1536 1536 1535 1535 1534 1534 1533 1533 1532
1513 1510 1509 1510 1510 1509 1509 1508 1509 1508 1507 1508 1509 1510 1511 1513 1515 1517 1519 1520 1522 1524 1525 1527 1528 1529 1531 1532 1533 1534 1535 1536 1536 1536 1536 1536 1536 1536 1536 1536 1535 1535 1534 1534 1533 1533 1532 1532 1531
1512 1511 1511 1510 1510 1510 1509 1508 1508 1507 1507 1508 1508 1509 1509 1512 1514 1516 1518 1520 1521 1523 1524 1526 1527 1528 1529 1531 1532 1533 1534 1534 1535 1535 1535 1535 1535 1535 1535 1534 1534 1533 1533 1532 1532 1531 1531 1530 1530
1511 1510 1510 1510 1510 1509 1509 1508 1508 1507 1507 1507 1507 1508 1509 1511 1514 1516 1518 1519 1521 1522 1524 1525 1526 1527 1528 1530 1530 1531 1533 1533 1534 1534 1534 1534 1534 1534 1533 1533 1533 1532 1532 1531 1531 1530 1530 1529 1529
1511 1510 1509 1508 1508 1509 1508 1508 1508 1506 1506 1506 1507 1508 1510 1511 1513 1515 1517 1518 1520 1521 1523 1524 1525 1526 1528 1528 1529 1530 1531 1531 1532 1532 1533 1533 1533 1533 1532 1532 1531 1531 1531 1530 1530 1529 1528 1528 1527
1511 1509 1507 1507 1507 1507 1508 1506 1505 1506 1506 1506 1507 1508 1510 1511 1513 1515 1516 1518 1519 1520 1522 1523 1524 1525 1526 1527 1528 1528 1529 1530 1531 1531 1532 1532 1532 1532 1531 1531 1530 1530 1529 1529 1529 1528 1527 1526 1526
1509 1506 1504 1505 1506 1506 1508 1502 1504 1505 1506 1506 1507 1508 1510 1511 1512 1514 1516 1517 1519 1520 1521 1522 1523 1523 1525 1526 1526 1527 1528 1529 1529 1530 1530 1530 1530 1530 1530 1530 1529 1529 1528 1528 1527 1527 1526 1525 1524
1506 1504 1502 1504 1505 1505 1504 1500 1503 1505 1505 1505 1507 1508 1510 1511 1512 1514 1515 1517 1518 1519 1520 1521 1522 1523 1523 1524 1525 1526 1526 1527 1528 1528 1529 1529 1529 1529 1529 1528 1528 1527 1527 1526 1526 1525 1525 1524 1523
1506 1503 1502 1502 1504 1504 1502 1501 1503 1505 1505 1505 1506 1508 1509 1511 1512 1513 1515 1516 1518 1519 1520 1521 1521 1522 1522 1523 1524 1525 1525 1526 1526 1526 1527 1527 1527 1527 1527 1527 1527 1526 1525 1525 1525 1524 1523 1523 1522
1506 1503 1502 1503 1505 1504 1501 1501 1502 1504 1504 1505 1506 1508 1509 1510 1512 1513 1514 1516 1517 1517 1519 1520 1521 1521 1522 1523 1523 1524 1524 1524 1524 1525 1524 1525 1525 1525 1525 1525 1525 1525 1524 1524 1523 1523 1522 1521 1520
1507 1504 1502 1505 1505 1504 1502 1502 1501 1503 1503 1504 1505 1506 1508 1509 1510 1512 1513 1514 1515 1517 1517 1518 1519 1520 1521 1522 1522 1523 1523 1523 1523 1523 1523 1524 1524 1524 1524 1524 1523 1523 1522 1522 1521 1521 1520 1520 1519
1506 1504 1503 1503 1505 1504 1503 1499 1500 1502 1504 1504 1505 1505 1507 1508 1509 1510 1512 1513 1514 1515 1516 1517 1519 1519 1520 1520 1520 1521 1522 1521 1522 1522 1522 1522 1522 1522 1522 1522 1522 1521 1521 1520 1520 1519 1519 1518 1517
1505 1507 1506 1504 1501 1501 1503 1500 1495 1499 1501 1502 1503 1504 1505 1506 1508 1509 1510 1511 1512 1513 1515 1516 1517 1518 1518 1518 1519 1520 1520 1520 1520 1520 1521 1520 1520 1520 1520 1520 1520 1519 1519 1518 1517 1517 1517 1516 1515
1508 1508 1507 1505 1502 1503 1503 1500 1492 1497 1497 1498 1500 1502 1503 1504 1505 1506 1507 1509 1510 1512 1513 1515 1516 1517 1517 1517 1518 1518 1518 1519 1519 1519 1519 1519 1519 1519 1518 1518 1518 1517 1517 1516 1515 1515 1514 1514 1513
1511 1508 1506 1505 1502 1503 1505 1501 1492 1492 1492 1493 1497 1499 1501 1502 1503 1504 1506 1507 1509 1510 1511 1513 1514 1514 1515 1515 1516 1516 1517 1517 1517 1517 1517 1517 1517 1517 1516 1516 1515 1515 1514 1514 1513 1512 1512 1511 1510
1509 1506 1505 1504 1503 1499 1508 1504 1493 1490 1493 1494 1495 1497 1499 1500 1501 1502 1504 1505 1506 1508 1509 1510 1512 1512 1513 1513 1514 1514 1515 1515 1515 1515 1515 1515 1514 1514 1513 1513 1512 1512 1511 1511 1510 1509 1509 1508 1507
1510 1507 1506 1504 1499 1497 1505 1499 1489 1493 1494 1495 1496 1497 1497 1499 1499 1501 1502 1503 1505 1506 1507 1508 1509 1510 1510 1511 1512 1512 1512 1512 1512 1512 1512 1512 1511 1511 1510 1510 1509 1509 1508 1508 1507 1507 1506 1505 1504
1509 1508 1511 1507 1506 1502 1494 1493 1489 1492 1493 1494 1495 1496 1496 1497 1498 1499 1500 1502 1503 1504 1505 1506 1507 1508 1508 1509 1509 1510 1509 1509 1509 1509 1509 1508 1508 1508 1507 1507 1506 1505 1505 1505 1504 1503 1502 1501 1501
1514 1511 1510 1508 1504 1496 1490 1489 1486 1488 1489 1492 1493 1494 1495 1496 1496 1497 1499 1500 1501 1503 1504 1505 1505 1506 1506 1506 1506 1506 1506 1506 1506 1506 1506 1505 1504 1504 1503 1503 1503 1502 1501 1500 1500 1499 1498 1498 1497
1514 1513 1510 1507 1505 1498 1490 1485 1484 1486 1487 1489 1491 1492 1493 1494 1495 1496 1497 1498 1500 1501 1502 1502 1503 1503 1503 1503 1503 1503 1503 1503 1503 1503 1502 1501 1501 1500 1500 1499 1499 1498 1498 1496 1495 1495 1494 1494 1493
1514 1511 1509 1506 1505 1504 1496 1488 1486 1488 1488 1489 1490 1491 1492 1493 1494 1495 1496 1497 1498 1498 1499 1500 1500 1501 1501 1501 1501 1501 1500 1500 1500 1499 1498 1498 1497 1497 1496 1495 1495 1494 1494 1493 1491 1490 1490 1489 1488